FENGYUN 1C DEB, 32364

Orbit data source: Space-Track

FENGYUN 1C DEB, 32364 is space debris in SSO originally from a launch on Mon, 10 May 1999 UTC launched from the Taiyaun Space Center, China (TSC). Fengyun 1C debris stems from the Chinese weather satellite Fengyun-1C, which was intentionally destroyed by a Chinese anti-satellite missile in 2007. This event dramatically increased the amount of space debris, with thousands of trackable fragments posing hazards to satellites and human spaceflight. The Fengyun 1C debris cloud has become a focal point in discussions about space sustainability and the need for international regulations to prevent the creation of new debris.

Loading next visibility...
Identifier
32364, 1999-025CZH
Orbit
SSO
Country
Flag of CNCN / PRC
Related business
Manufacturer
Unknown
Mission
Spacecraft
Bus & Motor
Unknown
Mass
Unknown
Launch date (UTC)
1999-05-10 (27 years ago)
Launch vehicle
Unknown
Launch site
Taiyaun Space Center, China (TSC)
Object type
Payload
Rocket body
Debris
Shape & HBR
Unknown shape, 1.1 m
Radar Cross Section
Small (<0.1 m²)

Expand to show TLE details & history
Last TLE update: 3 weeks ago

TLE from 3 weeks ago
0 FENGYUN 1C DEB
1 32364U 99025CZH 25333.33724103  .00004699  00000-0  22712-2 0  9996
2 32364  98.2918 173.2369 0134940 222.8285 136.2316 14.14317962635192
Epoch: 2025-11-29T08:05Z
TLE epoch observation values (Epoch: 2025-11-29T08:05:37.624Z)
Latitude
-0.00006°
Longitude
-16.63675°
Altitude
918.57 km
Speed
7.356 km/s
True Right ascension
11h 32m 56s
True Declination
0° 00' 00"
Sunlit
Object was in daylight at epoch
Visualization orbit readout
Latitude
Unknown
Longitude
Unknown
Altitude
Unknown
Speed
Unknown
Apparent Right ascension
Unknown
Apparent Declination
Unknown
Sunlit
N/A
Visualization observer readout
Local Sidereal Time
23:39:24
Azimuth
Unknown
Elevation
Unknown
Doppler factor
Unknown
Orbital elements
Apogee altitude
939.205 km
Perigee altitude
744.354 km
Semi-major axis
7,219.916 km
Eccentricity
0.01349
Inclination
98.2918°
RAAN
173.2369°
Arg. of periapsis
222.8285°
True anomaly
137.28831°
Mean anomaly
136.2316°
Eccentric anomaly
136.76124°
Mean motion
3.53789 °/min
Orbital period
101.76 mins
BSTAR
0.0022712
Loading maneuver chart data...
Computing Atmospheric mass density...
Loading historical data...
Loading historical data...
Loading historical data...
Loading historical data...
Loading historical data...
Loading historical data...
Loading historical data...

Documentation

Showing up to 5 results
|